Location: Geldersheim
(50.0426°N, 10.1565°E)
Time: 22:42:32
(UTC+00:00)

Daily predictions for brighter satellites

Satellite Brightness Start Highest point End
(mag) Time Altitude Azimuth Time Altitude Azimuth Time Altitude Azimuth
USA 238 DEB 4.4 17:43:31 10° NW 17:50:17 44° NNE 17:57:18 10° ESE
USA 238 4.4 17:43:37 10° NW 17:50:22 44° NNE 17:57:24 10° ESE
NOSS 3-1 (C) 4.4 17:47:32 10° WSW 17:53:03 49° NW 17:59:36 10° NE
Cosmos 2263 Rocket 2.4 17:50:58 10° S 17:56:18 50° ESE 18:01:41 10° NE
Meteor 2-9 Rocket 4.4 17:53:46 10° S 17:59:27 56° E 18:05:07 10° NNE
USA 102 4.1 17:55:03 10° SE 18:01:21 66° ENE 18:04:18 10° NNW
SL-08 RB Rocket 4.4 17:57:32 10° SE 18:01:40 34° ENE 18:05:47 10° N
Tsikada Rocket 4.4 17:55:51 10° NNW 18:02:00 71° W 18:08:07 10° S
Cosmos 1844 Rocket 4.2 18:01:35 10° SE 18:04:17 14° E 18:06:59 10° ENE
CZ-2C R/B 3.2 17:59:17 10° SSE 18:04:31 83° ENE 18:10:07 10° NNW
SJ 16-02 1.7 18:00:34 10° SSW 18:04:56 72° WNW 18:09:20 10° NNE
Cosmos 990 Rocket 3.9 18:00:09 10° SSW 18:05:15 70° ESE 18:10:24 10° NNE
Cosmos 2227 4.3 18:00:12 10° SSW 18:05:51 63° ESE 18:11:30 10° NE
ISS -1.7 18:04:55 10° SSE 18:06:35 13° SE 18:08:13 10° ESE
Abrixas rocket 2.4 18:06:02 10° WSW 18:08:44 42° SSE 18:11:14 12° E
Cosmos 1943 3.3 18:03:54 10° NNW 18:09:35 84° WSW 18:15:15 10° SSE
Okean 2 Rocket 4.1 18:06:28 10° SE 18:10:12 26° E 18:13:56 10° NNE
SJ-11-01 4.3 18:06:08 10° SSE 18:10:51 79° ENE 18:15:34 10° NNW
NOSS 8 (F) 4.0 18:08:30 10° SW 18:11:42 77° SE 18:14:44 10° NE
Okean-O 3.9 18:08:55 10° S 18:13:10 45° W 18:17:26 10° NNW
Lacrosse 5 rocket 2.1 18:09:24 10° WSW 18:13:35 57° NNW 18:18:01 10° NE
Ariane Rocket 3.4 18:11:35 10° SE 18:16:20 42° ENE 18:21:07 10° N
Cosmos 1437 2.7 18:14:35 10° NNW 18:17:35 77° WSW 18:20:34 10° S
NOSS 3-2 (A) 4.2 18:11:43 10° NW 18:18:51 59° NE 18:26:32 12° ESE
Meteor 1-21 4.3 18:14:45 10° NNW 18:20:25 87° WSW 18:26:01 10° S
NOSS 2-2 (C) 4.0 18:17:56 10° S 18:20:57 27° ESE 18:24:14 10° ENE
USA 116 3.4 18:18:42 10° NNE 18:22:04 89° WNW 18:25:46 10° SSW
Cosmos 2227 Rocket 4.4 18:17:51 10° W 18:22:34 26° NW 18:27:18 10° NNE
Cosmos 1300 Rocket 4.2 18:19:29 10° SSE 18:23:26 33° E 18:27:24 10° NNE
GP-B 4.4 18:19:35 10° N 18:23:50 44° W 18:28:02 10° SSW
YAOGAN 1 3.9 18:24:40 10° S 18:28:46 42° W 18:32:55 10° NNW
Cosmos 1603 4.5 18:23:24 10° NW 18:28:56 54° WSW 18:34:22 10° S
HJ-1C 3.9 18:27:53 10° S 18:31:08 59° W 18:34:25 10° NNW
Cosmos 1898 Rocket 3.6 18:27:12 10° SSW 18:32:22 80° WNW 18:37:37 10° NNE
Cosmos 1867 3.6 18:27:43 10° NW 18:33:13 87° SW 18:38:36 10° SE
CSL-04 Rocket 4.2 18:28:41 10° S 18:34:02 63° WSW 18:39:32 10° NNW
Cosmos 1536 Rocket 4.0 18:33:24 10° N 18:37:39 42° ENE 18:41:16 14° SE
USA 234 4.0 18:35:50 10° ENE 18:41:27 30° SE 18:47:04 10° S
Cosmos 1626 4.0 18:41:12 10° NNE 18:43:14 14° ENE 18:43:18 14° ENE
DMSP B5D2-2 4.5 18:41:00 10° NNE 18:46:00 41° E 18:50:58 10° SSE
CREW DRAGON DEMO-1 DEB 3.1 18:43:25 10° W 18:46:27 61° N 18:47:59 25° ENE
Cosmos 1782 Rocket 4.3 18:45:20 10° SSW 18:49:40 56° WNW 18:54:04 10° N
Cosmos 1975 4.3 18:46:54 10° SW 18:50:47 41° WNW 18:54:41 10° N
CZ-4 R/B 4.1 18:47:51 10° SW 18:51:08 22° W 18:54:26 10° NW
Cosmos 2151 Rocket 3.8 18:47:00 10° SSE 18:51:15 46° E 18:55:34 10° NNE
Cosmos 372 Rocket 4.0 18:46:22 10° S 18:51:30 58° ESE 18:56:39 10° NNE
USA 186 1.7 18:48:48 12° SSE 18:51:40 86° WSW 18:54:55 10° NNW
Cosmos 1025 Rocket 2.9 18:47:20 10° N 18:51:43 75° E 18:56:06 10° SSE
NOSS 3-2 (C) 4.2 18:45:48 10° NW 18:52:58 61° NE 18:58:44 21° ESE
Cosmos 2150 Rocket 4.4 18:49:00 10° S 18:53:59 41° ESE 18:59:04 10° NE
Cosmos 1072 Rocket 4.5 18:50:51 10° S 18:57:05 83° E 19:03:27 10° N
Nadezhda 4 Rocket 3.9 18:52:19 10° N 18:58:27 69° ENE 19:04:32 10° SSE
Cosmos 1805 4.4 19:00:43 25° ENE 19:00:43 25° ENE 19:03:33 10° NNE
Cosmos 2082 Rocket 4.1 18:58:27 10° N 19:01:58 16° NNE 19:04:43 12° ENE
OBJECT-B 1.0 19:01:23 39° ESE 19:02:06 47° ENE 19:05:15 10° N
Cosmos 1937 Rocket 4.0 18:56:54 10° SW 19:02:07 63° WNW 19:07:19 10° NNE
MOS 1 Rocket 3.6 18:58:35 10° N 19:03:05 63° WNW 19:07:23 10° SSW
Cosmos 2034 Rocket 4.0 18:57:03 10° S 19:03:19 64° E 19:09:36 10° NNE
Cosmos 1125 Rocket 4.1 19:00:15 10° SSE 19:05:00 34° ESE 19:09:46 10° NE
FREGAT/IRIS 2.3 19:05:32 42° S 19:06:15 75° WSW 19:08:52 10° NNW
Exosat Rocket 4.1 19:01:20 10° S 19:06:18 33° ESE 19:10:46 10° NE
Cosmos 1674 2.8 19:04:43 10° N 19:08:32 54° ENE 19:09:42 37° SE
COSMOS 2406 4.3 19:05:10 10° NNW 19:10:07 30° NE 19:12:17 23° E
Meteor 1-24 Rocket 4.3 19:07:17 10° N 19:12:22 38° ENE 19:14:11 30° ESE
In-Cosmos 22 4.3 19:10:16 10° NNW 19:15:32 70° W 19:20:50 10° S
SL-14 R/B 4.4 19:13:08 10° N 19:16:10 27° ENE 19:16:10 27° ENE
NOSS 2-2 (E) 3.3 19:14:34 10° SW 19:18:06 74° NW 19:22:16 10° NE
Resurs 01 Rocket 1.9 19:19:16 39° ESE 19:20:27 50° ENE 19:24:47 10° N
Cosmos 1707 4.2 19:17:24 10° NNW 19:20:57 36° W 19:24:28 10° SSW
H-2A R/B 3.8 19:16:52 10° SSW 19:21:11 30° W 19:25:38 10° NNW
ARGOS 4.4 19:17:16 10° SSW 19:22:16 40° W 19:27:19 10° NNW
ATLAS 2AS CENTAUR R/B 4.0 19:16:47 10° SSE 19:24:48 25° E 19:29:22 10° ENE
CZ-2C R/B 2.7 19:18:01 10° NNE 19:23:34 90° SE 19:29:10 10° SSW
SJ-6B 3.4 19:21:47 17° S 19:24:28 52° W 19:28:09 10° NNW
Lacrosse 4 Rocket 3.6 19:22:58 10° N 19:25:02 13° NNE 19:25:54 13° NE
KORONAS-FOTON 3.7 19:22:14 10° N 19:26:11 82° E 19:27:14 47° SSE
NOSS 2-2 (D) 3.2 19:23:01 10° SW 19:26:32 77° NW 19:30:38 10° NE
Cosmos 1048 Rocket 4.2 19:25:51 10° NNW 19:31:09 72° WSW 19:34:10 26° S
Cosmos 1766 4.1 19:33:40 36° NE 19:33:40 36° NE 19:36:23 10° NNE
ATLAS CENTAUR R/B 4.2 19:32:28 10° NNW 19:33:27 11° NNW 19:34:26 10° N
CENTAUR R/B 3.1 19:25:57 10° NW 19:33:55 83° NE 19:38:32 32° SE
SPOT 1/Viking Rocket 4.3 19:33:46 33° ENE 19:34:22 34° ENE 19:39:00 10° N
Cosmos 1844 3.7 19:29:47 10° S 19:35:18 54° ESE 19:40:48 10° NE
IGS 5A 4.3 19:37:07 35° NE 19:37:07 35° NE 19:40:33 10° N
Cosmos 1634 Rocket 4.1 19:34:23 32° SSE 19:36:57 53° E 19:42:57 10° NNE
ARIANE 5 R/B 3.0 19:37:43 44° ENE 19:37:44 45° ENE 19:41:54 10° N
SWAS 4.3 19:34:01 10° NNW 19:38:22 90° ESE 19:39:04 62° SSE
ATLAS 3B R/B 3.3 19:33:27 10° NW 19:39:57 45° NNE 19:42:49 31° E
Cosmos 1269 Rocket 4.1 19:35:09 10° NNW 19:40:25 58° ENE 19:41:30 48° ESE
Cosmos 2263 Rocket 3.8 19:35:21 10° WSW 19:40:26 35° NW 19:45:34 10° NNE
Cosmos 2285 Rocket 4.0 19:35:26 10° S 19:41:36 60° ESE 19:47:51 10° NNE
USA 238 DEB 4.0 19:34:34 10° NW 19:41:43 70° SW 19:45:37 30° SSE
USA 238 4.0 19:34:40 10° NW 19:41:49 70° SW 19:45:42 31° SSE
MetOp-B 4.2 19:41:10 47° ESE 19:42:25 59° ENE 19:47:41 10° N
ISS -2.1 19:39:32 10° SW 19:41:13 26° SW 19:41:13 26° SW
Abrixas rocket 3.8 19:41:02 10° W 19:42:31 27° WSW 19:42:31 27° WSW
Cosmos 1844 Rocket 2.5 19:41:40 10° SSW 19:47:13 79° ESE 19:52:51 10° NNE
Spot 2 Rocket 3.7 19:48:07 47° E 19:48:27 48° ENE 19:53:18 10° N
Cosmos 1627 Rocket 4.4 19:44:17 10° N 19:50:44 84° E 19:53:34 36° SSE
Okean 1 Rocket 3.0 19:51:22 56° S 19:52:17 89° ESE 19:56:49 10° N
Lacrosse 5 rocket 2.9 19:49:26 10° WNW 19:53:27 33° N 19:55:13 25° NE
Cosmos 1092 Rocket 4.1 19:50:43 10° NNW 19:56:51 74° W 20:00:15 28° S
Meteor 1-15 Rocket 4.4 19:53:54 10° SSW 19:59:30 71° WNW 20:05:15 10° N
Resurs 1-3 4.4 19:57:57 32° SSW 19:59:32 47° W 20:03:49 10° NNW
Cosmos 494 Rocket 4.4 19:58:56 10° NNW 20:04:06 58° WSW 20:05:36 42° SSW
Cosmos 2026 Rocket 4.0 19:58:02 10° N 20:04:25 84° W 20:06:55 40° S
CZ-2C R/B 3.6 20:00:24 10° NNE 20:04:52 79° WNW 20:05:31 64° SW
SPOT 3 Rocket 4.2 20:03:38 31° SSW 20:05:51 52° W 20:10:55 10° NNW
Cosmos 1833 Rocket 3.0 20:01:53 10° NNW 20:07:25 50° NE 20:07:46 49° ENE
Cosmos 2251 Rocket 4.4 20:08:05 10° NNW 20:12:49 36° NE 20:12:49 36° NE
Terra 3.1 20:19:12 29° NE 20:19:12 29° NE 20:22:16 10° N
Cosmos 1626 3.4 20:15:13 10° NNW 20:17:51 40° NW 20:17:51 40° NW
Cosmos 1892 Rocket 4.0 20:16:39 10° N 20:20:06 56° NNW 20:20:06 56° NNW
Cosmos 2279 Rocket 3.8 20:20:51 68° ESE 20:21:13 70° E 20:27:28 10° NNE
Cosmos 2142 Rocket 4.3 20:21:19 63° S 20:22:25 81° E 20:28:41 10° N
USA 234 3.1 20:19:23 15° ENE 20:25:05 83° SSE 20:31:39 10° SW
OBJECT-B 3.9 20:34:34 12° W 20:34:45 12° W 20:36:08 10° WNW
SPOT 5 3.5 20:40:10 55° NNE 20:40:10 55° NNE 20:44:27 10° N
Cosmos 2082 Rocket 2.6 20:41:46 10° NNW 20:46:33 53° NNE 20:46:33 53° NNE
COSMOS 2406 3.5 20:49:15 10° NW 20:54:20 61° W 20:54:20 61° W
ERS-1 Rocket 3.6 20:57:24 52° NNW 20:57:24 52° NNW 21:01:13 10° NNW
Resurs 01 Rocket 3.7 20:56:51 21° W 20:57:13 21° W 21:00:38 10° NW
Cosmos 2098 Rocket 4.1 20:56:28 10° NNW 21:03:43 76° W 21:03:49 76° WSW
Lacrosse 4 Rocket 3.6 21:00:33 10° NNW 21:02:11 23° NNW 21:02:11 23° NNW
Cosmos 2266 Rocket 4.1 21:00:18 10° N 21:05:35 69° NNW 21:05:35 69° NNW
Cosmos 1655 Rocket 4.3 21:06:31 10° NNW 21:12:30 63° W 21:12:30 63° W
ATLAS 2AS CENTAUR R/B 2.9 21:11:59 67° SW 21:13:18 89° SE 21:21:12 10° NE
Cosmos 2278 Rocket 3.8 21:22:33 26° NNE 21:22:33 26° NNE 21:24:54 10° NNE
CENTAUR R/B 4.2 21:17:10 10° NW 21:24:15 33° WSW 21:25:44 32° SW
ATLAS 3B R/B 3.1 21:24:12 10° NW 21:30:03 57° W 21:30:03 57° W
Lacrosse 5 rocket 3.8 21:29:05 10° NW 21:30:51 22° NW 21:30:51 22° NW
Cosmos 1833 Rocket 4.3 21:46:10 10° NW 21:49:28 28° WNW 21:49:28 28° WNW
Terra 4.0 21:58:06 22° NW 21:58:06 22° NW 22:00:08 10° NNW
USA 234 3.8 22:01:35 10° ENE 22:07:56 55° NNW 22:14:17 10° W
Cosmos 2082 Rocket 4.3 22:26:23 10° NW 22:28:23 19° WNW 22:28:23 19° WNW
Cosmos 1943 Rocket 4.5 22:35:45 17° NE 22:35:45 17° NE 22:36:56 10° NE
COSMOS 2455 4.5 22:35:51 28° NNE 22:35:51 28° NNE 22:38:35 10° NNE
Cosmos 2369 Rocket 4.4 22:59:19 19° NE 22:59:19 19° NE 23:00:51 10° NE
CZ-4C R/B 4.0 23:02:00 27° NNE 23:02:00 27° NNE 23:04:55 10° NE
Cosmos 2278 Rocket 4.1 23:04:22 24° NW 23:04:22 24° NW 23:08:33 10° NNE
ATLAS 2AS CENTAUR R/B 4.1 22:59:08 15° W 23:05:12 40° NNW 23:12:24 10° NE
NOSS 3-1 (C) 4.4 23:23:19 10° NW 23:28:48 55° NNW 23:28:48 55° NNW
Cosmos 2227 Rocket 4.3 23:38:08 10° N 23:42:24 21° NE 23:43:30 20° NE
USA 234 3.9 23:44:08 10° E 23:50:24 50° N 23:56:39 10° WNW
